Regional Weather Roundup
Issued by NWS

Home | Current Version | Previous Version | Text Only | Print | Product List | Glossary Off
Versions: 1 2 3 4 5 6 7 8 9 10 11 12 13 14 15 16 17 18 19 20 21 22 23 24 25 26 27 28 29 30 31 32 33 34 35 36 37 38 39 40 41 42 43 44 45 46 47 48 49 50

000
ASUS43 KLOT 211058
RWRIL

ILLINOIS REGIONAL WEATHER ROUNDUP
NATIONAL WEATHER SERVICE CHICAGO/ROMEOVILLE IL
600 AM CDT SUN SEP 21 2014

NOTE: "FAIR" INDICATES FEW OR NO CLOUDS BELOW 12,000 FEET WITH NO
SIGNIFICANT WEATHER AND/OR OBSTRUCTIONS TO VISIBILITY.

* THESE STATIONS ARE NOT UNDER NWS QUALITY CONTROL. THEY ALSO MAY NOT
  REPORT WEATHER SUCH AS PRECIPITATION OR FOG.

ILZ001-002-007-009-015-016-024-211200-
NORTHWEST ILLINOIS

CITY           SKY/WX    TMP DP  RH WIND       PRES   REMARKS
MOLINE         CLEAR     57  52  83 W12       29.90S
$$

ILZ003-004-008-010-011-017-018-211200-
NORTH CENTRAL ILLINOIS

CITY           SKY/WX    TMP DP  RH WIND       PRES   REMARKS
ROCKFORD       NOT AVBL
$$

ILZ005-006-012>014-019>023-211200-
NORTHEAST ILLINOIS

CITY           SKY/WX    TMP DP  RH WIND       PRES   REMARKS
CHICAGO-OHARE  CLEAR     58  51  78 W12G23    29.79R
CHICAGO-MIDWAY PTCLDY    60  54  80 W13       29.80R
AURORA         CLEAR     56  51  84 W12       29.83R
WAUKEGAN       CLEAR     56  51  84 VRB6G18   29.75R
DUPAGE AIRPORT CLEAR     56  52  86 W13       29.81R
WHEELING       CLEAR     59  51  75 W12G23    29.79R
NORTHERLY ISL    N/A     60  51  72 W7          N/A
$$

LMZ740>746-211200-
SOUTHERN LAKE MICHIGAN

STATION/POSITION SKY/WX   TEMP    WIND        PRES    VSBY  WAVE
                          AIR SEA DIR/SP/G                  HT/PER
                          (F)     (DEG/KT/KT) (MB)    (MI)  (FT/S)
SOUTHERN BUOY              62 63  270/ 23/ 27 1005.4R         4/ 4
WAUKEGAN HARBOR            59     260/ 13/ 18   N/A
HARRISON CRIB              62     290/ 23/ 27   N/A
BURNHAM HARBOR             61     280/  9/ 17   N/A
CALUMET HARBOR             60     260/  5/  8 1007.6R
MICHIGAN CITY              64     250/ 26/ 30   N/A
MICHIGAN CITY 6N           64 65  290/ 21/ 27   N/A           7/ 4
ST. JOSEPH                 64 65  280/ 19/ 25   N/A           6/ 5
$$

ILZ025>027-034>036-040-047-049-050-058-095>099-211200-
WEST-CENTRAL ILLINOIS

CITY           SKY/WX    TMP DP  RH WIND       PRES   REMARKS
$$

ILZ028>032-037-038-041>044-048-051>054-059>061-211200-
CENTRAL ILLINOIS

CITY           SKY/WX    TMP DP  RH WIND       PRES   REMARKS
PEORIA         NOT AVBL
SPRINGFIELD    CLEAR     59  54  83 W6        29.96R
TAYLORVILLE    NOT AVBL
$$

ILZ033-039-045-046-055>057-062-063-211200-
EAST-CENTRAL ILLINOIS

CITY           SKY/WX    TMP DP  RH WIND       PRES   REMARKS
CHAMPAIGN      CLEAR     60  56  86 NW10      29.91R
MATTOON        PTCLDY    64  59  83 NW18      29.90R
$$

ILZ079-100>102-211200-
SOUTHWEST ILLINOIS

CITY           SKY/WX    TMP DP  RH WIND       PRES   REMARKS
CAHOKIA*       MOCLDY    72  67  84 NW14      29.95R
$$

ILZ064>066-069>071-074>076-080>082-084>086-088>090-092>094-211200-
SOUTH-CENTRAL ILLINOIS

CITY           SKY/WX    TMP DP  RH WIND       PRES   REMARKS
CARBONDALE     CLOUDY    71  68  90 W5        29.92R
$$

ILZ067-068-072-073-078-083-087-091-211200-
SOUTHEAST ILLINOIS

CITY           SKY/WX    TMP DP  RH WIND       PRES   REMARKS
$$

ABBREVIATIONS USED IN REMARKS
   TC - TEMPERATURE IN CELSIUS
  WCI - WIND CHILL INDEX
   HX - HEAT INDEX
  VSB - VISIBILITY
$$




USA.gov is the U.S. government's official web portal to all federal, state and local government web resources and services.